Weather History for KIFP - April, 2013

Change the Weather History Date:

Tuesday, April 9, 2013

  Actual Average Record
Temperature  
Mean Temperature 64 °F -  
Max Temperature 73 °F 77 °F 102 °F (1989)
Min Temperature 55 °F 57 °F 44 °F (2001)
Degree Days  
Heating Degree Days 1    
Growing Degree Days 14 (Base 50)    
Moisture  
Dew Point 24 °F    
Average Humidity 24    
Maximum Humidity 58    
Minimum Humidity 13    
Precipitation  
Precipitation 0.00 in - - ()
Sea Level Pressure  
Sea Level Pressure 29.78 in    
Wind  
Wind Speed 12 mph (North)    
Max Wind Speed 29 mph    
Max Gust Speed 39 mph    
Visibility 10 miles    
Events      
Averages and records for this station are not official NWS values.
T = Trace of Precipitation, MM = Missing Value Source: NWS Daily Summary

Daily Weather History Graph

Daily Weather History Graph

Search for Another Location

Airport or City:

Trip Planner

Search our weather history database for the weather conditions in past years. The results will help you decide how hot, cold, wet, or windy it might be!

Date:

Astronomy

Apr. 09, 2013 Rise Set
Actual Time 6:13 AM MST 7:06 PM MST
Civil Twilight 5:47 AM MST 7:32 PM MST
Nautical Twilight 5:17 AM MST 8:02 PM MST
Astronomical Twilight 4:45 AM MST 8:34 PM MST
Moon 5:37 AM MST (4/9) 6:45 PM MST (4/9)
Length of Visible Light 13h 44m
Length of Day
12h 52m
Waning Crescent, 0% of the Moon is Illuminated
Apr 9
Waning Crescent
Apr 10
New
Apr 18
First Quarter
Apr 25
Full
May 2
Last Quarter

Hourly Weather History & Observations

Time (MST) Temp. Dew Point Humidity Pressure Visibility Wind Dir Wind Speed Gust Speed Precip Events Conditions
12:15 AM 57.2 °F 39.2 °F 51% 29.61 in 10.0 mi East 4.6 mph - N/A   Partly Cloudy
12:35 AM 57.2 °F 39.2 °F 51% 29.62 in 10.0 mi NE 4.6 mph - N/A   Partly Cloudy
12:55 AM 57.2 °F 39.2 °F 51% 29.62 in 10.0 mi NE 6.9 mph - N/A   Clear
1:15 AM 55.4 °F 39.2 °F 54% 29.63 in 10.0 mi East 3.5 mph - N/A   Clear
1:35 AM 55.4 °F 39.2 °F 54% 29.63 in 10.0 mi Calm Calm - N/A   Clear
1:55 AM 55.4 °F 39.2 °F 54% 29.64 in 10.0 mi Calm Calm - N/A   Clear
2:15 AM 55.4 °F 41.0 °F 58% 29.64 in 10.0 mi Calm Calm - N/A   Clear
2:35 AM 55.4 °F 39.2 °F 54% 29.65 in 10.0 mi Calm Calm - N/A   Clear
2:55 AM 55.4 °F 39.2 °F 54% 29.65 in 10.0 mi Calm Calm - N/A   Clear
3:15 AM 55.4 °F 39.2 °F 54% 29.65 in 10.0 mi Calm Calm - N/A   Clear
3:35 AM 55.4 °F 37.4 °F 51% 29.65 in 10.0 mi Calm Calm - N/A   Clear
3:55 AM 55.4 °F 35.6 °F 47% 29.66 in 10.0 mi Calm Calm - N/A   Clear
4:15 AM 57.2 °F 26.6 °F 31% 29.67 in 10.0 mi North 4.6 mph - N/A   Clear
4:35 AM 57.2 °F 23.0 °F 27% 29.67 in 10.0 mi NNW 5.8 mph - N/A   Clear
4:55 AM 57.2 °F 21.2 °F 25% 29.68 in 10.0 mi North 8.1 mph - N/A   Clear
5:15 AM 57.2 °F 21.2 °F 25% 29.69 in 10.0 mi North 9.2 mph - N/A   Clear
5:35 AM 57.2 °F 19.4 °F 23% 29.69 in 10.0 mi North 15.0 mph - N/A   Clear
5:55 AM 57.2 °F 19.4 °F 23% 29.71 in 10.0 mi North 13.8 mph - N/A   Clear
6:15 AM 57.2 °F 19.4 °F 23% 29.72 in 10.0 mi North 11.5 mph - N/A   Clear
6:35 AM 57.2 °F 19.4 °F 23% 29.73 in 10.0 mi NNE 9.2 mph - N/A   Clear
6:55 AM 59.0 °F 19.4 °F 22% 29.74 in 10.0 mi North 11.5 mph - N/A   Clear
7:15 AM 59.0 °F 19.4 °F 22% 29.75 in 10.0 mi North 15.0 mph - N/A   Clear
7:35 AM 59.0 °F 19.4 °F 22% 29.75 in 10.0 mi NNE 15.0 mph 20.7 mph N/A   Clear
7:55 AM 59.0 °F 21.2 °F 23% 29.77 in 10.0 mi North 13.8 mph - N/A   Clear
8:15 AM 59.0 °F 19.4 °F 22% 29.77 in 10.0 mi North 13.8 mph 19.6 mph N/A   Clear
8:55 AM 62.6 °F 19.4 °F 19% 29.78 in 10.0 mi North 19.6 mph 32.2 mph N/A   Clear
9:15 AM 64.4 °F 21.2 °F 19% 29.78 in 10.0 mi North 23.0 mph 31.1 mph N/A   Clear
9:35 AM 64.4 °F 21.2 °F 19% 29.77 in 10.0 mi North 28.8 mph 39.1 mph N/A   Clear
9:55 AM 64.4 °F 21.2 °F 19% 29.79 in 10.0 mi NNW 26.5 mph 35.7 mph N/A   Clear
10:15 AM 64.4 °F 23.0 °F 21% 29.80 in 10.0 mi North 21.9 mph 32.2 mph N/A   Clear
10:35 AM 66.2 °F 23.0 °F 19% 29.79 in 10.0 mi North 28.8 mph 32.2 mph N/A   Clear
10:55 AM 66.2 °F 23.0 °F 19% 29.80 in 10.0 mi NNW 25.3 mph 35.7 mph N/A   Clear
11:15 AM 66.2 °F 23.0 °F 19% 29.80 in 10.0 mi North 24.2 mph 34.5 mph N/A   Clear
11:35 AM 68.0 °F 23.0 °F 18% 29.80 in 10.0 mi NNW 26.5 mph 34.5 mph N/A   Clear
11:55 AM 68.0 °F 23.0 °F 18% 29.80 in 10.0 mi NNW 26.5 mph 35.7 mph N/A   Clear
12:15 PM 68.0 °F 23.0 °F 18% 29.80 in 10.0 mi NNW 25.3 mph 29.9 mph N/A   Clear
12:35 PM 68.0 °F 23.0 °F 18% 29.81 in 10.0 mi North 19.6 mph 27.6 mph N/A   Clear
12:55 PM 68.0 °F 23.0 °F 18% 29.81 in 10.0 mi North 24.2 mph 33.4 mph N/A   Clear
1:15 PM 69.8 °F 21.2 °F 16% 29.80 in 10.0 mi NNW 21.9 mph 33.4 mph N/A   Clear
1:35 PM 71.6 °F 19.4 °F 14% 29.80 in 10.0 mi North 18.4 mph 32.2 mph N/A   Clear
1:55 PM 71.6 °F 19.4 °F 14% 29.80 in 10.0 mi North 24.2 mph 29.9 mph N/A   Clear
2:15 PM 71.6 °F 19.4 °F 14% 29.80 in 10.0 mi NNW 18.4 mph 26.5 mph N/A   Clear
2:35 PM 71.6 °F 19.4 °F 14% 29.79 in 10.0 mi NNW 19.6 mph 28.8 mph N/A   Clear
2:55 PM 71.6 °F 19.4 °F 14% 29.78 in 10.0 mi NNW 18.4 mph 29.9 mph N/A   Clear
3:15 PM 73.4 °F 19.4 °F 13% 29.78 in 10.0 mi NNW 19.6 mph 24.2 mph N/A   Clear
3:35 PM 71.6 °F 19.4 °F 14% 29.78 in 10.0 mi North 18.4 mph - N/A   Clear
3:55 PM 73.4 °F 19.4 °F 13% 29.78 in 10.0 mi NNW 24.2 mph 27.6 mph N/A   Clear
4:15 PM 73.4 °F 19.4 °F 13% 29.78 in 10.0 mi NNW 19.6 mph - N/A   Clear
4:35 PM 73.4 °F 19.4 °F 13% 29.78 in 10.0 mi NNW 21.9 mph - N/A   Clear
4:55 PM 73.4 °F 19.4 °F 13% 29.78 in 10.0 mi NNW 18.4 mph - N/A   Clear
5:15 PM 73.4 °F 19.4 °F 13% 29.78 in 10.0 mi NNW 24.2 mph 29.9 mph N/A   Clear
5:35 PM 71.6 °F 19.4 °F 14% 29.79 in 10.0 mi NNW 18.4 mph 27.6 mph N/A   Clear
5:55 PM 71.6 °F 19.4 °F 14% 29.79 in 10.0 mi North 16.1 mph 27.6 mph N/A   Clear
6:15 PM 71.6 °F 19.4 °F 14% 29.80 in 10.0 mi NNE 13.8 mph 21.9 mph N/A   Clear
6:35 PM 71.6 °F 21.2 °F 15% 29.80 in 10.0 mi NNE 18.4 mph 24.2 mph N/A   Clear
6:55 PM 69.8 °F 21.2 °F 16% 29.81 in 10.0 mi NNE 23.0 mph 26.5 mph N/A   Clear
7:15 PM 68.0 °F 21.2 °F 17% 29.82 in 10.0 mi NNE 20.7 mph 27.6 mph N/A   Clear
7:35 PM 68.0 °F 21.2 °F 17% 29.83 in 10.0 mi North 27.6 mph - N/A   Clear
7:55 PM 68.0 °F 21.2 °F 17% 29.85 in 10.0 mi North 25.3 mph 31.1 mph N/A   Clear
8:15 PM 66.2 °F 21.2 °F 18% 29.87 in 10.0 mi NNE 21.9 mph 29.9 mph N/A   Clear
8:35 PM 66.2 °F 21.2 °F 18% 29.89 in 10.0 mi North 18.4 mph - N/A   Clear
8:55 PM 66.2 °F 23.0 °F 19% 29.90 in 10.0 mi North 25.3 mph 33.4 mph N/A   Clear
9:15 PM 66.2 °F 23.0 °F 19% 29.92 in 10.0 mi North 26.5 mph 33.4 mph N/A   Clear
9:35 PM 64.4 °F 23.0 °F 21% 29.94 in 10.0 mi North 18.4 mph 34.5 mph N/A   Clear
9:55 PM 64.4 °F 23.0 °F 21% 29.95 in 10.0 mi North 20.7 mph - N/A   Clear
10:15 PM 62.6 °F 23.0 °F 22% 29.96 in 10.0 mi NNE 12.7 mph 20.7 mph N/A   Clear
10:35 PM 62.6 °F 23.0 °F 22% 29.97 in 10.0 mi North 10.4 mph - N/A   Clear
10:55 PM 62.6 °F 23.0 °F 22% 29.97 in 10.0 mi North 12.7 mph 17.3 mph N/A   Clear
11:15 PM 62.6 °F 21.2 °F 20% 29.98 in 10.0 mi NNE 12.7 mph 18.4 mph N/A   Clear
11:35 PM 62.6 °F 21.2 °F 20% 29.98 in 10.0 mi North 12.7 mph 24.2 mph N/A   Clear
11:55 PM 62.6 °F 23.0 °F 22% 29.99 in 10.0 mi North 23.0 mph 27.6 mph N/A   Clear